Meridian, MS

12:49 PM CDT on August 18, 2017 (GMT -0500)
Key

Weather History for KMEI - January, 2013

Change the Weather History Date:

Monday, January 28, 2013

  Actual Average Record
Temperature  
Mean Temperature 59 °F 45 °F  
Max Temperature 67 °F 57 °F 80 °F (1957)
Min Temperature 51 °F 33 °F 4 °F (1940)
Degree Days  
Heating Degree Days 6 20  
Month to date heating degree days 447 571  
Since 1 July heating degree days 1403 1579  
Cooling Degree Days 0 0  
Month to date cooling degree days 11 0  
Year to date cooling degree days 11 0  
Growing Degree Days 10 (Base 50)    
Moisture  
Dew Point 57 °F    
Average Humidity 87    
Maximum Humidity 100    
Minimum Humidity 73    
Precipitation  
Precipitation 0.00 in 0.19 in 2.66 in (1912)
Month to date precipitation 8.11 4.56  
Year to date precipitation 8.11 4.56  
Sea Level Pressure  
Sea Level Pressure 30.23 in    
Wind  
Wind Speed 6 mph (South)    
Max Wind Speed 14 mph    
Max Gust Speed 18 mph    
Visibility 6 miles    
Events Fog    
T = Trace of Precipitation, MM = Missing Value Source: NWS Daily Summary

Daily Weather History Graph

Daily Weather History Graph

Search for Another Location

Airport or City:

Trip Planner

Search our weather history database for the weather conditions in past years. The results will help you decide how hot, cold, wet, or windy it might be!

Date:

Astronomy

Jan. 28, 2013 Rise Set
Actual Time 6:51 AM CST 5:24 PM CST
Civil Twilight 6:25 AM CST 5:50 PM CST
Nautical Twilight 5:56 AM CST 6:20 PM CST
Astronomical Twilight 5:26 AM CST 6:49 PM CST
Moon 7:09 PM CST (1/28) 7:25 AM CST (1/28)
Length of Visible Light 11h 25m
Length of Day
10h 33m
Full, 98% of the Moon is Illuminated
Jan 28
Full
Feb 3
Last Quarter
Feb 10
New
Feb 17
First Quarter
Feb 25
Full

Hourly Weather History & Observations

Time (CST) Temp. Dew Point Humidity Pressure Visibility Wind Dir Wind Speed Gust Speed Precip Events Conditions
12:51 AM 53.6 °F 53.6 °F 100% 30.25 in 1.8 mi South 5.8 mph - N/A   Clear
12:58 AM 53.1 °F 53.1 °F 100% 30.24 in 1.0 mi South 4.6 mph - N/A   Clear
1:20 AM 51.8 °F 51.8 °F 100% 30.24 in 2.0 mi South 4.6 mph - N/A   Clear
1:22 AM 51.8 °F 51.8 °F 100% 30.24 in 1.0 mi South 5.8 mph - N/A   Mist
1:29 AM 53.6 °F 51.8 °F 94% 30.24 in 0.5 mi SSE 5.8 mph - N/A Fog Fog
1:33 AM 53.6 °F 53.6 °F 100% 30.24 in 1.0 mi SE 6.9 mph - N/A   Mist
1:35 AM 53.6 °F 53.6 °F 100% 30.24 in 2.5 mi SSE 6.9 mph - N/A   Partly Cloudy
1:42 AM 55.4 °F 55.4 °F 100% 30.24 in 5.0 mi SSE 5.8 mph - N/A   Partly Cloudy
1:58 AM 52.0 °F 52.0 °F 100% 30.24 in 3.0 mi SSE 5.8 mph - N/A   Clear
2:58 AM 57.9 °F 55.9 °F 93% 30.22 in 7.0 mi SSE 10.4 mph - N/A   Clear
3:58 AM 57.0 °F 55.9 °F 96% 30.22 in 6.0 mi South 5.8 mph - N/A   Partly Cloudy
4:20 AM 57.2 °F 55.4 °F 94% 30.23 in 5.0 mi SSE 4.6 mph - N/A   Mostly Cloudy
4:58 AM 57.9 °F 57.0 °F 97% 30.25 in 5.0 mi SSE 6.9 mph - N/A   Overcast
5:58 AM 57.9 °F 57.0 °F 97% 30.25 in 3.0 mi South 5.8 mph - N/A   Overcast
6:11 AM 57.2 °F 57.2 °F 100% 30.26 in 3.0 mi South 5.8 mph - N/A   Overcast
6:26 AM 57.2 °F 57.2 °F 100% 30.27 in 2.5 mi South 5.8 mph - N/A   Overcast
6:42 AM 57.2 °F 57.2 °F 100% 30.27 in 1.5 mi South 6.9 mph - N/A   Overcast
6:58 AM 57.0 °F 57.0 °F 100% 30.26 in 1.2 mi South 8.1 mph - N/A   Overcast
7:29 AM 57.2 °F 57.2 °F 100% 30.27 in 2.5 mi South 8.1 mph - N/A   Overcast
7:37 AM 57.2 °F 57.2 °F 100% 30.27 in 3.0 mi South 6.9 mph - N/A   Overcast
7:54 AM 57.2 °F 57.2 °F 100% 30.27 in 4.0 mi South 6.9 mph - N/A   Overcast
7:58 AM 57.9 °F 57.9 °F 100% 30.27 in 4.0 mi South 8.1 mph - N/A   Overcast
8:40 AM 57.2 °F 57.2 °F 100% 30.28 in 3.0 mi South 10.4 mph - N/A   Overcast
8:49 AM 59.0 °F 57.2 °F 94% 30.28 in 2.0 mi South 6.9 mph - N/A   Overcast
8:58 AM 59.0 °F 57.9 °F 96% 30.28 in 2.0 mi Variable 5.8 mph - N/A   Overcast
9:10 AM 59.0 °F 57.2 °F 94% 30.29 in 4.0 mi South 6.9 mph - N/A   Overcast
9:31 AM 59.0 °F 57.2 °F 94% 30.29 in 5.0 mi South 5.8 mph - N/A   Overcast
9:58 AM 60.1 °F 59.0 °F 96% 30.30 in 5.0 mi South 4.6 mph - N/A   Overcast
10:58 AM 62.1 °F 57.9 °F 86% 30.29 in 8.0 mi South 9.2 mph - N/A   Overcast
11:31 AM 62.6 °F 57.2 °F 82% 30.28 in 8.0 mi SSW 10.4 mph - N/A   Overcast
11:58 AM 63.0 °F 57.9 °F 84% 30.26 in 9.0 mi South 9.2 mph - N/A   Overcast
12:33 PM 64.4 °F 57.2 °F 77% 30.25 in 10.0 mi South 8.1 mph - N/A   Overcast
12:58 PM 64.9 °F 57.9 °F 78% 30.23 in 10.0 mi South 8.1 mph - N/A   Overcast
1:58 PM 66.0 °F 57.9 °F 75% 30.21 in 10.0 mi South 10.4 mph - N/A   Overcast
2:58 PM 66.0 °F 57.9 °F 75% 30.19 in 10.0 mi South 9.2 mph - N/A   Overcast
3:06 PM 66.2 °F 57.2 °F 73% 30.20 in 10.0 mi South 9.2 mph - N/A   Overcast
3:13 PM 66.2 °F 57.2 °F 73% 30.20 in 10.0 mi South 10.4 mph - N/A   Overcast
3:58 PM 66.9 °F 59.0 °F 76% 30.19 in 10.0 mi South 8.1 mph - N/A   Overcast
4:15 PM 66.2 °F 57.2 °F 73% 30.19 in 10.0 mi South 8.1 mph - N/A   Scattered Clouds
4:58 PM 66.0 °F 59.0 °F 78% 30.18 in 10.0 mi Calm Calm - N/A   Clear
5:58 PM 63.0 °F 57.9 °F 84% 30.18 in 10.0 mi East 3.5 mph - N/A   Clear
6:58 PM 55.9 °F 55.0 °F 97% 30.17 in 6.0 mi Calm Calm - N/A   Clear
7:58 PM 54.0 °F 54.0 °F 100% 30.17 in 6.0 mi Calm Calm - N/A   Clear
8:58 PM 62.1 °F 57.9 °F 86% 30.16 in 10.0 mi SSE 8.1 mph - N/A   Clear
9:58 PM 62.1 °F 57.9 °F 86% 30.15 in 10.0 mi South 8.1 mph - N/A   Clear
10:58 PM 61.0 °F 57.9 °F 90% 30.15 in 10.0 mi South 5.8 mph - N/A   Clear
11:41 PM 60.8 °F 60.8 °F 100% 30.15 in 8.0 mi South 8.1 mph - N/A   Mostly Cloudy
11:58 PM 61.0 °F 60.1 °F 97% 30.15 in 7.0 mi South 8.1 mph - N/A   Mostly Cloudy